Погода Сумы

Погода Сумы : погода сейчас, прогноз погоды и архив. Всё, что Вы хотите узнать о погоде Сумы!

Хотите узнать прогноз погоды Сумы? Тогда Вам сюда: Погода Сумы

Поиск расширенной информации на нашем сайте:

Другие новости

Новости СМИ2

Главная страница сайта

Новости сайта

03.07.2017

Напоминаем, что на нашем специализированном сайте Метеоцентр.Азия вы можете получить высокодетализированные автоматические прогнозы погоды по пунктам России, СНГ и мира в авиационном формате (включающие направление и скорость ветра, видимость, явления погоды, количество и форму облачности, нижнюю и верхнюю границу облачности).

Рекомендуем: Подборка материалов по истории и теории экономики http://www.econbook.ru/

Погода Сумы - сегодня

Время (UTC), дата Ветер
(°,м/с) 
Видим.   Явления Облачность Т
(°С)
Тd
(°С)
f(%) Тe
(°С)
Pmin
(гПа)
dP
(гПа)
Po
(мм)
O2
(г/м3)
Тmin Tmax R s Состояние
почвы
00 21.09.17 050 (СВ) 10 км    4/0 средняя 
[Ac trans]
+15.7 +7.5 58 +16  1016.1  0.7  746  283           
06 21.09.17 100 (В) 10 км    4/0 верхняя 
[Ci fib]
+17.2 +10 63 +18  1015.2  -0.7  745  281  +12.2         
09 21.09.17 100 (В) 10 км    3/0 верхняя 
[Ci fib]
+24.6 +10.2 40 +26  1014.3  -0.4  745  274           
12 21.09.17 110 (В) 10 км    3/0 средняя 
[Ac trans]
+29.1 +11.3 33 +32  1012.1  -1.8  744  269           
15 21.09.17 110 (В) 10 км    ясно 
+27.6 +11.2 36 +31  1012.6  0.4  744  270           
18 21.09.17 090 (В) 10 км    ясно 
+22.7 +10.6 46 +25  1014.4  1.4  745  275    +29.6       
21 21.09.17 090 (В) 10 км    ясно 
+19.2 +10.3 56 +21  1015.2  0.5  745  279           
00 22.09.17 060 (СВ) 10 км    ясно 
+17.4 +10.3 63 +20  1016.1  0.8  746  281           
03 22.09.17 060 (СВ) 10 км    ясно 
+15.1 +9.1 67 +15  1016.4  0.1  746  283           
06 22.09.17 080 (В) 10 км    ясно 
+17.3 +8.1 55 +17  1017.2  0.9  747  282  +15.1         
09 22.09.17 070 (В) 10 км    ясно 
+22.4 +8 40 +22  1016.9  0.1  747  277           
12 22.09.17 080 (В) 10  10 км    ясно 
+25.2 +7.5 32 +25  1016.4  -0.3  747  274           
15 22.09.17 090 (В) 11  10 км    4/0 верхняя 
[Ci fib]
+23.8 +8 36 +24  1016.3  -0.2  746  275           
18 22.09.17 090 (В) 10  10 км    3/0 верхняя 
[Ci fib]
+19 +7.7 48 +19  1019  2.3  748  281    +25.7       
21 22.09.17 100 (В) 10 км    3/0 верхняя 
[Ci fib]
+16.5 +8 57 +16  1020  0.8  749  283           
00 23.09.17 110 (В) 10 км    6/0 верхняя 
[Ci fib]
+14.4 +7 61 +14  1022.3  2.1  750  286           
03 23.09.17 110 (В) 10 км    6/0 верхняя 
[Ci fib]
+12.2 +5.8 65 +11  1022.9  0.4  751  289           
06 23.09.17 110 (В) 10 км    6/4 600 м средняя 
[Sc|Ac trans]
+12.4 +2.5 51 +11  1023.9  751  289  +11.3         
09 23.09.17 100 (В) 10 км    6/6 600 м 
[Sc]
+16.6 +3.3 41 +16  1024.8  1.2  752  285           
12 23.09.17 090 (В) 10 км    6/0 верхняя 
[Ci fib]
+21.3 +3.3 31 +21  1023.5  -0.9  752  280           
15 23.09.17 090 (В) 10 км    6/0 верхняя 
[Ci fib]
+19.9 +4 35 +20  1024.5  0.8  752  282           
18 23.09.17 090 (В) 10 км    3/0 верхняя 
[Ci fib]
+16.7 +5.7 48 +17  1025.3  0.6  753  285    +21.7       
21 23.09.17 090 (В) 10 км    ясно 
+14.1 +6.4 60 +14  1026.1  0.6  753  288           
00 24.09.17 090 (В) 10 км    ясно 
+12.3 +5.4 63 +11  1026.4  0.1  753  290           
03 24.09.17 090 (В) 10 км    8/0 верхняя 
[Ci fib]
+10.8 +4.3 64 +10  1027  0.5  754  291           
Время (UTC), дата Ветер
(°,м/с) 
Видим.   Явления Облачность Т
(°С)
Тd
(°С)
f(%) Тe
(°С)
Pmin
(гПа)
dP
(гПа)
Po
(мм)
O2
(г/м3)
Тmin Tmax R s Состояние
почвы

Для получения пояснительной информации подведите курсор к названию столбца.

ПОГОДА Сумы - архив

Всё, что Вы хотите узнать о погоде Сумы - удобно и подробно!

Выберите нужную дату (начиная с 1 января 2015* года) и нажмите кнопку "Найти".
Будут отображены архивные сводки погоды по пункту Сумы, начиная с указанной даты.


Отображать данные в формате CSV (для использования в таблицах Excel)


Внимание! Наш архив погоды предназначен исключительно для личного некоммерческого использования в познавательных целях. Если Вам необходимы официальные справки о состоянии погоды (для производственных, юридических, коммерческих и т.п. целей), обращайтесь в органы Росгидромета.

*Примечание: данная дата относится к архиву по метеостанциям СССР (Россия, СНГ, Балтия).
Архив по метеостанциям Зарубежной Европы и Азии (кроме Китая) хранится 10 дней, по другим регионам земного шара (Китай, Африка, Америка, Австралия, Океания) - 1 день.

Сумы - район местоположения метеостанции


Название, широта, долгота, высота метеостанции:
Сумы 50.9°ш. 34.7°д. 181 м над ур. моря [Украина]

Дополнительная информация

В oтличие oт бoльшинства пoгoдных сайтoв мы публикуем пoдрoбную метеoинфoрмацию в детальнoм прoфессиoнальнoм фoрмате.

Характеристики температуры и влажнoсти вoздуха измеряются на высoте 2 м в тени вдали oт зданий и деревьев.
Скoрoсть ветра измеряется на высoте 10 м (на урoвне рoста челoвека скoрoсть ветра ниже в 1.5-2 раза). Если метеoстанция нахoдится в гoрoде или в лесу, тo скoрoсть ветра занижена на 2-4 м/с пo сравнению с oткрытым местoм. Скoрoсть ветра над акватoриями крупных рек и oзёр, а также на вершинах хoлмoв на 2-5 м/с выше, чем в oбычных услoвиях.
Атмoсфернoе давление в разных тoчках местнoсти мoжет значительнo oтличаться oт давления на метеoстанции, в зависимoсти oт услoвий рельефа (при пoдъёме на 10 м давление пoнижается примернo на 1 мм рт.ст.).